Location: Forst
(46.9333°N, 15.4333°E)
Time: 20:48:11
(UTC+00:00)

Cosmos 2333 Rocket - Pass Details

Date: 01 December 2020
Orbit: 840 x 861 km, 70.8° (Epoch: 27 January)

Event Time Altitude Azimuth Distance (km) Brightness Sun altitude
Rises 15:36:51 0° 247° (WSW) 3,400 8.2 -4.6°
Reaches altitude 10° 15:39:47 10° 261° (W) 2,466 6.1 -5.1°
Maximum altitude 15:44:18 24° 314° (NW) 1,689 4.0 -5.8°
Drops below altitude 10° 15:48:49 10° 8° (N) 2,469 4.3 -6.5°
Sets 15:51:46 0° 22° (NNE) 3,406 4.9 -6.9°
